User: anonymous   Login
Location: Songkhla
(7.2000°N, 100.6000°E)
Time: 09:43:49
(UTC+07:00)
Language:

First-Move - Orbit

View from above orbital plane
View from above orbital plane
View from above satellite
View from above satellite

Ground track
Ground track

The orbit data is extracted from the following two-line orbital elements,

1 39439U 13066Z   21216.40037298  .00000717  00000-0  92104-4 0  9994
2 39439  97.6004 199.8180 0064784   3.1067 357.0536 14.82687643415051
Epoch (UTC): 04 August 2021 09:36:32
Eccentricity: 0.0064784
inclination: 97.6004°
perigee height: 575 km
apogee height: 666 km
right ascension of ascending node: 199.8180°
argument of perigee: 3.1067°
revolutions per day: 14.82687643
mean anomaly at epoch: 357.0536°
orbit number at epoch: 41505

The dashed part of the orbit path shows where the satellite is in the earth's shadow,  

DLR